Weather History for KWRL - May, 2014

Change the Weather History Date:

Sunday, May 25, 2014

  Actual Average Record
Temperature  
Mean Temperature 63 °F 58 °F  
Max Temperature 78 °F 73 °F 89 °F (2003)
Min Temperature 47 °F 44 °F 34 °F (1975)
Degree Days  
Heating Degree Days 2 7  
Month to date heating degree days 283 269  
Since 1 July heating degree days 8185 7736  
Cooling Degree Days 0 0  
Month to date cooling degree days 4 0  
Year to date cooling degree days 4 1  
Growing Degree Days 12 (Base 50)    
Moisture  
Dew Point 48 °F    
Average Humidity 58    
Maximum Humidity 93    
Minimum Humidity 22    
Precipitation  
Precipitation 0.00 in 0.05 in 0.60 in (1962)
Month to date precipitation 1.09 1.13  
Year to date precipitation 2.16 2.87  
Sea Level Pressure  
Sea Level Pressure 29.91 in    
Wind  
Wind Speed 5 mph (SSE)    
Max Wind Speed 15 mph    
Max Gust Speed 18 mph    
Visibility 10 miles    
Events      
T = Trace of Precipitation, MM = Missing Value Source: NWS Daily Summary

Daily Weather History Graph

Daily Weather History Graph

Search for Another Location

Airport or City:

Trip Planner

Search our weather history database for the weather conditions in past years. The results will help you decide how hot, cold, wet, or windy it might be!

Date:

Astronomy

May. 25, 2014 Rise Set
Actual Time 5:36 AM MDT 8:41 PM MDT
Civil Twilight 5:01 AM MDT 9:16 PM MDT
Nautical Twilight 4:17 AM MDT 10:00 PM MDT
Astronomical Twilight 3:24 AM MDT 10:54 PM MDT
Moon 3:50 AM MDT (5/25) 5:39 PM MDT (5/25)
Length of Visible Light 16h 14m
Length of Day
15h 04m
Waning Crescent, 10% of the Moon is Illuminated
May 25
Waning Crescent
May 28
New
Jun 5
First Quarter
Jun 12
Full
Jun 19
Last Quarter

Hourly Weather History & Observations

Time (MDT) Temp. Dew Point Humidity Pressure Visibility Wind Dir Wind Speed Gust Speed Precip Events Conditions
12:53 AM 54.0 °F 51.1 °F 90% 29.90 in 10.0 mi ESE 3.5 mph - N/A   Clear
1:53 AM 51.1 °F 48.9 °F 92% 29.91 in 10.0 mi South 5.8 mph - N/A   Clear
2:53 AM 48.9 °F 46.0 °F 90% 29.91 in 10.0 mi SSW 5.8 mph - N/A   Clear
3:53 AM 48.9 °F 46.0 °F 90% 29.93 in 10.0 mi SSW 3.5 mph - N/A   Clear
4:53 AM 48.9 °F 46.0 °F 90% 29.95 in 10.0 mi South 5.8 mph - N/A   Clear
5:53 AM 48.0 °F 46.0 °F 93% 29.97 in 10.0 mi South 4.6 mph - N/A   Clear
6:53 AM 54.0 °F 50.0 °F 86% 29.99 in 10.0 mi SW 3.5 mph - N/A   Partly Cloudy
7:53 AM 55.9 °F 48.9 °F 77% 29.98 in 10.0 mi SW 4.6 mph - N/A   Clear
9:53 AM 62.1 °F 51.1 °F 67% 30.00 in 10.0 mi Calm Calm - N/A   Clear
10:53 AM 64.0 °F 51.1 °F 63% 29.99 in 10.0 mi Variable 3.5 mph - N/A   Clear
11:53 AM 66.9 °F 52.0 °F 59% 29.98 in 10.0 mi Calm Calm - N/A   Clear
12:53 PM 71.1 °F 52.0 °F 51% 29.94 in 10.0 mi ENE 5.8 mph - N/A   Clear
1:53 PM 72.0 °F 51.1 °F 48% 29.92 in 10.0 mi Calm Calm - N/A   Clear
2:53 PM 73.9 °F 48.0 °F 40% 29.89 in 10.0 mi Variable 3.5 mph - N/A   Clear
3:53 PM 73.9 °F 44.1 °F 34% 29.87 in 10.0 mi Variable 3.5 mph - N/A   Clear
4:53 PM 75.9 °F 44.1 °F 32% 29.85 in 10.0 mi ENE 4.6 mph - N/A   Clear
5:53 PM 77.0 °F 43.0 °F 30% 29.84 in 10.0 mi ENE 3.5 mph - N/A   Clear
6:53 PM 77.0 °F 36.0 °F 23% 29.83 in 10.0 mi SE 3.5 mph - N/A   Clear
7:53 PM 73.0 °F 48.0 °F 41% 29.83 in 10.0 mi SE 4.6 mph - N/A   Clear
8:53 PM 63.0 °F 48.9 °F 60% 29.86 in 10.0 mi SE 8.1 mph - N/A   Partly Cloudy
9:53 PM 68.0 °F 48.9 °F 50% 29.88 in 10.0 mi ESE 13.8 mph - N/A   Mostly Cloudy
10:53 PM 64.0 °F 48.9 °F 58% 29.89 in 10.0 mi SE 11.5 mph - N/A   Partly Cloudy
11:53 PM 64.0 °F 48.9 °F 58% 29.88 in 10.0 mi SE 11.5 mph - N/A   Mostly Cloudy